15min,AgWx,beryljct,423,17FEB2021:00:00:00,30.6,12.76,30.0,29.4,29.2,29.4,29.1,94,95,94,0.516,27.8,28.0,27.5,1.556,1.1,40,4.7,2.3,-0.00010,-0.00014,37.1,38.9,12,0,0,.,7.14,0.00,0.00
15min,AgWx,beryljct,423,17FEB2021:00:15:00,30.3,12.77,29.6,29.2,29.4,29.5,29.2,93,94,93,0.504,27.6,28.0,27.3,2.389,1.7,9.4,11,3.0,-0.00009,-0.00011,37.0,38.8,12,0,0,.,7.14,0.00,0.00
15min,AgWx,beryljct,423,17FEB2021:00:30:00,30.1,12.75,29.1,28.7,29.0,29.3,28.7,93,93,92,0.497,27.1,27.4,26.9,2.083,2.7,7.1,8.9,3.5,-0.00006,-0.00008,36.9,38.8,12,0,0,.,7.14,0.00,0.00
15min,AgWx,beryljct,423,17FEB2021:00:45:00,29.9,12.75,27.8,27.7,28.1,28.7,27.7,94,94,93,0.483,26.5,27.0,26.0,3.639,3.0,350,11,4.2,-0.00006,-0.00007,36.9,38.8,12,0,0,.,7.14,0.00,0.00
15min,AgWx,beryljct,423,17FEB2021:01:00:00,29.6,12.74,27.7,27.2,27.3,27.7,26.9,95,95,94,0.479,26.0,26.2,25.6,2.148,2.9,319,9.0,4.0,-0.00006,-0.00008,36.8,38.7,12,0,0,.,7.14,0.00,0.00
15min,AgWx,beryljct,423,17FEB2021:01:15:00,29.4,12.75,28.3,27.8,27.5,27.9,27.2,95,96,95,0.491,26.3,26.7,26.1,3.771,3.8,315,7.8,5.1,-0.00005,-0.00006,36.7,38.7,12,0,0,.,7.14,0.00,0.00
15min,AgWx,beryljct,423,17FEB2021:01:30:00,29.2,12.72,27.6,27.4,27.7,27.9,27.3,95,95,94,0.478,26.4,26.8,26.0,2.938,3.0,337,9.3,4.0,-0.00006,-0.00007,36.6,38.7,12,0,0,.,7.14,0.00,0.00
15min,AgWx,beryljct,423,17FEB2021:01:45:00,28.6,12.73,25.8,25.9,26.5,27.4,25.7,95,95,94,0.454,25.1,26.1,24.4,2.828,2.9,341,13,3.5,-0.00006,-0.00007,36.5,38.6,12,0,0,.,7.14,0.00,0.00
15min,AgWx,beryljct,423,17FEB2021:02:00:00,28.0,12.71,25.6,25.4,25.9,26.4,25.4,95,96,95,0.443,24.8,25.3,24.1,4.275,3.1,318,5.4,4.3,-0.00006,-0.00007,36.5,38.6,12,0,0,.,7.14,0.00,0.00
15min,AgWx,beryljct,423,17FEB2021:02:15:00,27.5,12.71,26.4,25.7,25.9,26.5,25.4,96,96,95,0.451,24.9,25.6,24.2,5.152,4.3,329,7.7,5.6,-0.00005,-0.00005,36.4,38.6,12,0,0,.,7.14,0.00,0.00
15min,AgWx,beryljct,423,17FEB2021:02:30:00,27.3,12.71,24.8,24.7,25.2,26.1,24.5,96,96,95,0.435,24.1,25.1,23.3,2.565,3.1,333,8.3,4.7,-0.00006,-0.00007,36.3,38.5,12,0,0,.,7.14,0.00,0.00
15min,AgWx,beryljct,423,17FEB2021:02:45:00,26.9,12.7,26.1,25.7,24.8,25.7,24.3,96,97,96,0.456,23.9,24.9,23.3,3.398,2.8,319,15,4.1,-0.00006,-0.00008,36.2,38.5,12,0,0,.,7.14,0.00,0.00
15min,AgWx,beryljct,423,17FEB2021:03:00:00,27.0,12.68,27.2,26.7,26.1,26.7,25.7,97,97,97,0.474,25.3,25.8,24.9,3.376,3.3,311,12,4.4,-0.00006,-0.00007,36.2,38.5,12,0,0,.,7.14,0.00,0.00
15min,AgWx,beryljct,423,17FEB2021:03:15:00,27.3,12.68,26.9,26.5,26.7,26.8,26.5,96,97,96,0.468,25.8,26.0,25.5,1.513,2.5,352,9.5,3.9,-0.00007,-0.00009,36.1,38.4,12,0,0,.,7.14,0.00,0.00
15min,AgWx,beryljct,423,17FEB2021:03:30:00,27.4,12.67,26.5,26.2,26.3,26.5,26.1,96,96,96,0.462,25.3,25.5,25.1,1.447,1.2,335,11,1.8,-0.00009,-0.00013,36.0,38.4,12,0,0,.,7.14,0.00,0.00
15min,AgWx,beryljct,423,17FEB2021:03:45:00,27.3,12.67,27.1,26.5,26.3,26.5,25.9,96,96,96,0.468,25.3,25.6,24.9,1.14,1.8,313,12,2.6,-0.00008,-0.00011,36.0,38.4,12,0,0,.,7.14,0.00,0.00
15min,AgWx,beryljct,423,17FEB2021:04:00:00,27.1,12.65,26.0,26.2,26.4,26.7,26.1,96,96,95,0.460,25.4,25.7,25.0,1.074,1.2,4.1,18,2.3,-0.00009,-0.00013,35.9,38.3,12,0,0,.,7.14,0.00,0.00
15min,AgWx,beryljct,423,17FEB2021:04:15:00,26.8,12.64,25.5,25.3,25.7,26.2,25.3,96,96,95,0.444,24.6,25.1,24.3,0,0.8,32,9.6,2.0,-0.00010,-0.00014,35.8,38.3,12,0,0,.,7.14,0.00,0.00
15min,AgWx,beryljct,423,17FEB2021:04:30:00,26.3,12.64,25.5,24.7,25.1,25.4,24.5,96,96,96,0.434,24.1,24.4,23.5,4.691,2.0,273,26,4.7,-0.00008,-0.00010,35.8,38.2,12,0,0,.,7.14,0.00,0.00
15min,AgWx,beryljct,423,17FEB2021:04:45:00,26.1,12.63,26.0,25.5,25.2,25.8,24.7,96,97,95,0.449,24.3,25.0,23.7,4.406,4.1,305,31,5.7,-0.00005,-0.00006,35.7,38.2,12,0,0,.,7.14,0.00,0.00
15min,AgWx,beryljct,423,17FEB2021:05:00:00,25.9,12.62,24.0,24.0,25.0,25.5,24.0,95,96,94,0.416,23.8,24.5,22.7,2.389,3.2,337,12,4.3,-0.00006,-0.00007,35.6,38.2,12,0,0,.,7.14,0.00,0.00
15min,AgWx,beryljct,423,17FEB2021:05:15:00,25.3,12.61,22.0,22.7,22.9,24.0,22.4,95,96,94,0.398,21.6,22.6,21.2,3.135,2.2,319,13,3.8,-0.00007,-0.00008,35.6,38.1,12,0,0,.,7.14,0.00,0.00
15min,AgWx,beryljct,423,17FEB2021:05:30:00,24.4,12.59,22.8,22.8,22.1,22.8,21.5,96,97,95,0.405,21.0,22.0,20.3,0.986,2.2,312,8.5,3.6,-0.00007,-0.00008,35.5,38.1,12,0,0,.,7.14,0.00,0.00
15min,AgWx,beryljct,423,17FEB2021:05:45:00,23.7,12.59,21.7,21.2,21.3,22.7,20.6,96,97,95,0.375,20.3,21.9,19.5,0,0.1,343,7.9,0.9,-0.00011,-0.00017,35.5,38.0,12,0,0,.,7.14,0.00,0.00
15min,AgWx,beryljct,423,17FEB2021:06:00:00,22.8,12.58,20.9,20.8,21.1,22.0,20.6,96,97,96,0.367,20.2,21.2,19.5,0,0.1,350,0.0,1.0,-0.00011,-0.00017,35.4,38.0,12,0,0,.,7.14,0.00,0.00
15min,AgWx,beryljct,423,17FEB2021:06:15:00,22.1,12.56,21.4,19.5,20.3,21.2,19.4,96,97,95,0.344,19.3,20.4,18.2,3.683,1.6,307,13,3.7,-0.00007,-0.00009,35.3,38.0,12,0,0,.,7.14,0.00,0.00
15min,AgWx,beryljct,423,17FEB2021:06:30:00,21.5,12.55,21.1,21.0,20.9,22.2,19.7,96,97,95,0.371,19.9,21.5,18.4,0.57,1.8,297,3.9,3.7,-0.00007,-0.00009,35.3,37.9,12,0,0,.,7.14,0.00,0.00
15min,AgWx,beryljct,423,17FEB2021:06:45:00,20.9,12.55,20.3,19.7,19.7,20.9,19.2,95,96,94,0.350,18.5,19.9,17.8,0.811,0.2,301,0.1,1.3,0.00001,0.00001,35.2,37.9,12,0,0,.,7.14,0.00,0.00
15min,AgWx,beryljct,423,17FEB2021:07:00:00,20.4,12.54,21.8,20.5,19.7,20.5,19.2,96,96,95,0.363,18.6,19.5,18.0,3.749,1.7,279,15,3.8,0.00001,0.00002,35.1,37.9,12,0,0,.,7.15,0.00,0.00
15min,AgWx,beryljct,423,17FEB2021:07:15:00,20.3,12.55,20.3,19.7,20.5,22.7,19.3,95,97,93,0.346,19.3,22.1,17.7,1.863,2.3,245,34,4.1,0.00002,0.00003,35.1,37.8,12,1,0,.,7.14,0.00,0.00
15min,AgWx,beryljct,423,17FEB2021:07:30:00,20.1,12.54,18.4,17.8,19.0,20.0,17.7,93,95,92,0.313,17.4,18.7,15.8,0,1.0,227,23,2.6,0.00003,0.00004,35.0,37.8,12,6,0,.,7.14,0.00,0.00
15min,AgWx,beryljct,423,17FEB2021:07:45:00,19.8,12.68,20.0,19.3,18.7,19.3,17.8,94,94,93,0.340,17.1,17.9,16.1,1.973,2.4,138,54,5.3,0.00009,0.00010,34.9,37.7,12,23,0,.,7.14,0.00,0.00
15min,AgWx,beryljct,423,17FEB2021:08:00:00,20.0,13.04,20.2,19.5,19.1,20.0,18.3,94,95,93,0.343,17.7,18.7,16.6,1.907,1.8,195,32,3.0,0.00021,0.00024,34.9,37.7,12,76,0,.,7.14,0.00,0.00
15min,AgWx,beryljct,423,17FEB2021:08:15:00,21.1,13.52,22.6,22.2,21.1,22.3,19.5,94,95,94,0.385,19.7,20.8,18.1,0.438,0.6,180,49,2.0,0.00035,0.00038,34.8,37.7,12,126,0,.,7.14,0.00,0.00
15min,AgWx,beryljct,423,17FEB2021:08:30:00,22.8,13.46,22.5,22.3,22.3,22.7,22.0,94,96,93,0.392,20.9,21.3,20.4,2.74,1.4,102,5.2,3.4,0.00038,0.00041,34.7,37.6,12,127,0,.,7.14,0.00,0.00
15min,AgWx,beryljct,423,17FEB2021:08:45:00,24.1,13.4,21.8,21.5,22.3,23.0,21.5,97,98,96,0.386,21.6,22.4,20.9,4.669,3.5,111,9.3,6.1,0.00036,0.00039,34.7,37.6,12,129,0,.,7.14,0.00,0.00
15min,AgWx,beryljct,423,17FEB2021:09:00:00,25.0,14.85,22.2,22.1,22.3,23.2,21.4,98,98,97,0.396,21.7,22.7,20.8,3.025,2.1,152,80,3.8,0.00061,0.00065,34.6,37.5,12,228,0,.,7.13,0.00,0.00
15min,AgWx,beryljct,423,17FEB2021:09:15:00,26.5,14.89,24.1,23.6,22.8,23.7,22.0,97,98,97,0.420,22.2,23.1,21.4,2.083,3.5,278,17,5.1,0.00082,0.00088,34.6,37.5,12,332,0,.,7.14,0.00,0.00
15min,AgWx,beryljct,423,17FEB2021:09:30:00,28.7,13.7,24.7,24.5,23.9,24.5,23.2,96,97,94,0.422,22.9,23.5,22.3,3.398,3.1,321,18,4.9,0.00098,0.00105,34.5,37.5,12,366,0,.,7.14,0.00,0.00
15min,AgWx,beryljct,423,17FEB2021:09:45:00,30.0,14.85,25.6,25.5,24.5,25.5,24.0,93,94,93,0.439,22.8,24.0,22.2,1.688,3.0,356,17,4.7,0.00095,0.00103,34.4,37.4,12,342,0,.,7.14,0.00,0.00
15min,AgWx,beryljct,423,17FEB2021:10:00:00,31.7,14.8,27.4,27.2,26.3,27.5,25.2,94,94,93,0.472,24.7,26.1,23.5,2.718,2.7,51,32,5.4,0.00123,0.00132,34.4,37.4,12,417,0,.,7.14,0.00,0.00
15min,AgWx,beryljct,423,17FEB2021:10:15:00,33.4,14.81,28.6,27.5,27.5,28.3,26.7,93,95,91,0.468,25.7,27.0,24.4,5.853,4.5,58,26,8.8,0.00140,0.00151,34.4,37.4,12,500,0,.,7.13,0.00,0.00
15min,AgWx,beryljct,423,17FEB2021:10:30:00,35.0,14.72,30.0,28.7,28.0,28.7,27.0,92,94,90,0.487,25.9,27.1,25.0,5.568,3.6,67,24,6.7,0.00160,0.00173,34.3,37.3,12,539,0,.,7.13,0.00,0.00
15min,AgWx,beryljct,423,17FEB2021:10:45:00,35.1,14.73,29.5,27.5,27.6,28.6,27.3,88,91,87,0.442,24.6,26.3,23.9,0.022,3.1,96,20,7.1,0.00080,0.00088,34.3,37.3,12,231,0,.,7.14,0.00,0.00
15min,AgWx,beryljct,423,17FEB2021:11:00:00,34.6,14.66,31.1,28.2,27.9,28.3,27.5,85,87,81,0.431,23.9,25.0,22.7,3.705,2.2,240,31,5.6,0.00090,0.00099,34.3,37.3,12,249,0,.,7.14,0.00,0.00
15min,AgWx,beryljct,423,17FEB2021:11:15:00,34.1,14.75,30.5,28.8,28.6,29.1,28.2,82,84,80,0.440,23.9,24.6,23.2,4.932,3.8,267,82,6.8,0.00088,0.00100,34.2,37.2,12,244,0,.,7.13,0.00,0.00
15min,AgWx,beryljct,423,17FEB2021:11:30:00,33.8,14.73,31.1,29.2,29.0,29.4,28.6,81,82,77,0.423,23.8,24.6,22.8,3.42,3.5,134,18,5.3,0.00077,0.00089,34.2,37.2,12,199,0,.,7.14,0.00,0.00
15min,AgWx,beryljct,423,17FEB2021:11:45:00,33.8,14.7,32.8,32.2,30.5,32.4,29.2,68,77,50,0.306,20.9,23.5,15.3,15.08,7.7,26,86,19.7,0.00121,0.00150,34.2,37.1,12,331,0,.,7.14,0.00,0.00
15min,AgWx,beryljct,423,17FEB2021:12:00:00,34.1,13.48,31.1,30.5,31.6,32.5,30.5,53,66,47,0.376,16.4,20.3,13.7,9.95,15.6,338,14,21.1,0.00132,0.00189,34.2,37.1,12,263,0,.,7.14,0.00,0.00
15min,AgWx,beryljct,423,17FEB2021:12:15:00,33.9,14.34,31.0,30.7,30.6,31.1,30.3,61,68,57,0.346,18.8,21.2,17.1,7.081,8.7,358,16,13.4,0.00090,0.00124,34.2,37.1,12,169,0,.,7.14,0.00,0.00
15min,AgWx,beryljct,423,17FEB2021:12:30:00,34.6,14.25,32.4,30.9,31.9,33.2,30.7,63,69,60,0.366,20.6,24.0,18.3,4.713,6.7,29,17,11.0,0.00197,0.00232,34.1,37.0,12,588,0,.,7.13,0.00,0.00
15min,AgWx,beryljct,423,17FEB2021:12:45:00,35.2,14.27,29.5,29.2,30.5,31.8,29.2,60,63,55,0.340,18.4,19.9,17.2,18.9,12.4,30,15,23.1,0.00100,0.00141,34.1,37.0,12,189,0,.,7.14,0.00,0.00
15min,AgWx,beryljct,423,17FEB2021:13:00:00,34.6,14.31,33.0,33.0,31.0,33.0,29.1,59,62,53,0.340,18.2,20.3,16.6,18.96,16.4,40,8.9,21.3,0.00160,0.00213,34.1,37.0,12,497,0,.,7.14,0.00,0.00
15min,AgWx,beryljct,423,17FEB2021:13:15:00,35.7,14.23,35.1,34.7,33.8,34.9,32.8,46,53,41,0.283,15.3,18.1,12.4,14.58,14.7,45,12,19.4,0.00241,0.00313,34.1,36.9,12,712,0,.,7.13,0.00,0.00
15min,AgWx,beryljct,423,17FEB2021:13:30:00,37.3,14.2,35.2,35.0,34.8,36.2,34.0,41,44,39,0.277,13.5,15.8,11.9,16.49,13.5,22,13,17.6,0.00263,0.00341,34.0,36.9,12,734,0,.,7.13,0.00,0.00
15min,AgWx,beryljct,423,17FEB2021:13:45:00,38.5,14.17,35.3,35.2,34.9,35.8,33.9,39,43,36,0.261,12.4,15.3,10.4,13.68,13.4,31,13,20.1,0.00219,0.00296,34.1,36.9,12,544,0,.,7.13,0.00,0.00
15min,AgWx,beryljct,423,17FEB2021:14:00:00,38.7,14.18,35.2,35.6,34.6,35.7,33.9,38,40,35,0.276,11.5,13.4,9.3,16.02,13.3,36,15,19.0,0.00177,0.00252,34.1,36.8,12,350,0,.,7.12,0.00,0.00
15min,AgWx,beryljct,423,17FEB2021:14:15:00,38.6,14.21,34.9,34.4,34.9,35.7,34.4,34,41,30,0.220,9.1,14.0,6.5,14.32,16.1,21,13,21.2,0.00180,0.00269,34.3,36.8,12,298,0,.,7.12,0.00,0.00
15min,AgWx,beryljct,423,17FEB2021:14:30:00,38.4,14.2,35.7,35.0,34.7,35.3,34.2,39,46,33,0.252,12.4,16.6,8.4,11.36,14.7,24,16,20.8,0.00186,0.00264,34.5,36.8,12,415,0,.,7.12,0.00,0.00
15min,AgWx,beryljct,423,17FEB2021:14:45:00,38.5,14.23,35.7,36.0,34.9,36.2,34.3,35,38,33,0.236,10.0,11.6,8.3,20.85,16.7,3.0,13,24.1,0.00213,0.00303,34.7,36.8,12,506,0,.,7.12,0.00,0.00
15min,AgWx,beryljct,423,17FEB2021:15:00:00,38.7,14.19,31.5,31.7,33.6,36.8,31.7,55,63,33,0.351,18.9,21.8,9.3,16.59,20.4,30,13,27.1,0.00184,0.00253,34.9,36.7,12,548,0,.,7.12,0.00,0.00
15min,AgWx,beryljct,423,17FEB2021:15:15:00,38.4,14.19,33.8,33.6,32.9,34.2,31.4,52,59,45,0.300,17.1,19.0,14.2,15.94,16.7,30,8.5,21.2,0.00178,0.00242,35.1,36.7,12,522,0,.,7.12,0.00,0.00
15min,AgWx,beryljct,423,17FEB2021:15:30:00,38.7,14.15,33.1,33.7,33.8,34.5,32.9,45,47,43,0.297,14.8,15.8,13.1,15.26,15.6,38,11,22.9,0.00184,0.00256,35.3,36.7,12,484,0,.,7.11,0.00,0.00
15min,AgWx,beryljct,423,17FEB2021:15:45:00,39.2,14.14,34.7,34.4,34.2,35.2,33.3,45,47,43,0.307,15.2,17.1,13.5,13.81,13.1,41,11,18.6,0.00186,0.00254,35.5,36.7,12,489,0,.,7.11,0.00,0.00
15min,AgWx,beryljct,423,17FEB2021:16:00:00,39.6,14.2,33.3,33.2,33.7,34.7,33.1,48,51,44,0.290,16.1,18.4,13.7,18.2,14.2,41,14,24.2,0.00134,0.00197,35.7,36.7,12,306,0,.,7.11,0.00,0.00
15min,AgWx,beryljct,423,17FEB2021:16:15:00,38.5,14.2,35.0,34.2,33.4,34.3,32.9,44,48,40,0.292,13.6,16.1,11.6,12.74,13.1,19,16,18.9,0.00120,0.00184,35.9,36.7,12,249,0,.,7.11,0.00,0.00
15min,AgWx,beryljct,423,17FEB2021:16:30:00,38.3,13.27,33.7,33.2,33.9,34.4,33.2,41,44,38,0.279,12.6,14.7,10.9,9.05,15.2,18,12,20.9,0.00136,0.00210,36.1,36.7,12,263,0,.,7.11,0.00,0.00
15min,AgWx,beryljct,423,17FEB2021:16:45:00,37.3,14.28,33.5,33.3,32.8,33.5,32.3,49,51,44,0.321,15.6,16.9,13.6,14.01,12.7,354,14,17.1,0.00095,0.00150,36.3,36.8,12,193,0,.,7.11,0.00,0.00
15min,AgWx,beryljct,423,17FEB2021:17:00:00,37.0,14.2,33.7,33.0,33.1,33.4,32.8,45,50,42,0.280,14.0,16.5,12.3,14.47,13.3,5.0,21,17.9,0.00121,0.00184,36.4,36.8,12,259,0,.,7.11,0.00,0.00
15min,AgWx,beryljct,423,17FEB2021:17:15:00,36.7,13.26,32.0,31.9,32.7,33.2,31.9,45,46,43,0.269,13.5,14.7,12.3,12.76,14.0,15,11,18.9,0.00078,0.00140,36.4,36.8,12,87,0,.,7.11,0.00,0.00
15min,AgWx,beryljct,423,17FEB2021:17:30:00,35.2,13.1,31.1,30.9,31.3,31.8,30.7,47,50,44,0.282,13.2,14.2,12.2,9.05,11.6,22,9.9,15.0,0.00026,0.00031,36.5,36.8,12,30,0,.,7.11,0.00,0.00
15min,AgWx,beryljct,423,17FEB2021:17:45:00,33.8,13.07,30.9,30.8,30.9,31.1,30.6,47,50,43,0.257,13.0,14.2,11.2,10.85,10.2,15,11,14.5,0.00024,0.00029,36.4,36.9,12,29,0,.,7.11,0.00,0.00
15min,AgWx,beryljct,423,17FEB2021:18:00:00,32.6,13.02,30.3,29.8,30.1,30.8,29.6,47,50,44,0.280,12.2,13.5,11.6,9.45,10.0,15,9.9,13.6,0.00023,0.00027,36.4,36.9,12,15,0,.,7.11,0.00,0.00
15min,AgWx,beryljct,423,17FEB2021:18:15:00,31.8,12.98,30.3,29.9,29.9,30.2,29.7,51,58,48,0.327,14.1,17.0,12.9,13.5,10.9,22,16,17.2,0.00020,0.00024,36.3,36.9,12,9,0,.,7.11,0.00,0.00
15min,AgWx,beryljct,423,17FEB2021:18:30:00,31.2,12.95,28.1,28.1,29.1,30.0,28.1,63,68,58,0.355,18.0,19.0,17.1,9.45,10.8,45,7.4,16.5,0.00013,0.00016,36.2,36.9,12,3,0,.,7.11,0.00,0.00
15min,AgWx,beryljct,423,17FEB2021:18:45:00,30.1,12.93,26.9,26.7,27.4,28.2,26.7,72,74,68,0.363,19.5,19.7,19.1,5.13,6.7,53,7.3,10.5,0.00004,0.00005,36.1,37.0,12,0,0,.,7.11,0.00,0.00
15min,AgWx,beryljct,423,17FEB2021:19:00:00,28.8,12.91,25.4,25.2,25.9,26.7,25.1,76,77,74,0.356,19.2,19.7,18.9,3.069,4.0,47,9.2,6.6,-0.00003,-0.00003,36.1,37.0,12,0,0,.,7.11,0.00,0.00
15min,AgWx,beryljct,423,17FEB2021:19:15:00,27.6,12.9,26.5,25.9,25.3,26.1,24.6,79,80,77,0.369,19.5,20.2,18.7,8.53,6.8,41,12,12.0,0.00001,0.00002,35.9,37.0,12,0,0,.,7.11,0.00,0.00
15min,AgWx,beryljct,423,17FEB2021:19:30:00,27.0,12.88,25.0,24.6,25.4,26.2,24.6,78,80,77,0.360,19.5,20.1,19.2,5.853,6.6,51,7.7,12.6,0.00001,0.00002,35.9,37.1,12,0,0,.,7.11,0.00,0.00
15min,AgWx,beryljct,423,17FEB2021:19:45:00,26.3,12.87,23.3,23.3,24.1,24.7,23.3,81,82,80,0.349,19.0,19.4,18.5,2.828,4.0,58,7.1,6.2,-0.00004,-0.00004,35.8,37.1,12,0,0,.,7.12,0.00,0.00
15min,AgWx,beryljct,423,17FEB2021:20:00:00,25.4,12.86,23.8,23.4,23.2,23.5,23.0,83,83,82,0.356,18.7,19.1,18.3,2.762,2.7,64,25,4.5,-0.00008,-0.00009,35.7,37.1,12,0,0,.,7.12,0.00,0.00
15min,AgWx,beryljct,423,17FEB2021:20:15:00,24.9,12.86,23.9,23.7,23.6,24.0,23.2,83,84,82,0.354,19.1,19.3,18.9,5.261,5.2,34,14,7.8,-0.00003,-0.00002,35.6,37.1,12,0,0,.,7.12,0.00,0.00
15min,AgWx,beryljct,423,17FEB2021:20:30:00,24.6,12.85,23.4,23.1,23.3,23.6,23.1,83,84,82,0.356,19.0,19.2,18.7,4.954,5.8,31,7.3,7.5,-0.00002,-0.00002,35.5,37.1,12,0,0,.,7.12,0.00,0.00
15min,AgWx,beryljct,423,17FEB2021:20:45:00,24.2,12.83,22.9,22.6,23.0,23.4,22.4,85,86,84,0.358,19.2,19.6,18.7,3.398,4.1,20,12,5.9,-0.00005,-0.00005,35.4,37.1,12,0,0,.,7.12,0.00,0.00
15min,AgWx,beryljct,423,17FEB2021:21:00:00,24.0,12.82,23.9,23.3,23.3,23.6,22.6,87,87,86,0.371,20.0,20.3,19.2,6.796,7.0,32,9.3,9.5,-0.00002,-0.00002,35.3,37.1,12,0,0,.,7.12,0.00,0.00
15min,AgWx,beryljct,423,17FEB2021:21:15:00,24.0,12.8,23.3,23.0,23.5,23.8,23.0,87,88,86,0.366,20.2,20.6,19.6,5.305,5.8,2.4,15,8.4,-0.00003,-0.00003,35.3,37.1,12,0,0,.,7.12,0.00,0.00
15min,AgWx,beryljct,423,17FEB2021:21:30:00,23.8,12.8,23.2,23.0,22.7,23.1,22.0,88,89,87,0.367,19.7,20.1,18.8,5.152,5.2,2.7,21,7.2,-0.00004,-0.00004,35.2,37.1,12,0,0,.,7.12,0.00,0.00
15min,AgWx,beryljct,423,17FEB2021:21:45:00,23.5,12.8,22.5,22.2,22.5,23.0,21.9,87,88,86,0.352,19.2,19.9,18.5,3.858,4.8,28,11,6.2,-0.00005,-0.00005,35.1,37.1,12,0,0,.,7.13,0.00,0.00
15min,AgWx,beryljct,423,17FEB2021:22:00:00,23.2,12.8,23.3,22.6,22.4,22.7,22.1,85,86,84,0.352,18.6,18.8,18.3,4.56,4.6,33,7.0,5.7,-0.00004,-0.00004,35.0,37.1,13,0,0,.,7.13,0.00,0.00
15min,AgWx,beryljct,423,17FEB2021:22:15:00,23.1,12.79,23.3,22.6,22.4,22.8,22.0,85,86,85,0.356,18.6,19.0,18.1,3.902,3.6,27,16,4.8,-0.00006,-0.00007,34.9,37.1,12,0,0,.,7.13,0.00,0.00
15min,AgWx,beryljct,423,17FEB2021:22:30:00,23.0,12.79,21.7,21.4,21.6,22.7,20.9,86,87,83,0.343,18.1,19.1,17.0,4.713,3.7,336,11,4.8,-0.00006,-0.00007,34.9,37.0,12,0,0,.,7.13,0.00,0.00
15min,AgWx,beryljct,423,17FEB2021:22:45:00,22.5,12.78,20.8,20.4,21.0,21.4,20.3,87,88,86,0.330,17.8,18.3,16.9,4.845,4.7,316,8.1,5.6,-0.00005,-0.00005,34.8,37.0,12,0,0,.,7.13,0.00,0.00
15min,AgWx,beryljct,423,17FEB2021:23:00:00,22.0,12.76,21.5,20.7,20.9,21.4,20.4,87,88,86,0.330,17.6,18.3,17.1,1.71,3.4,322,15,5.5,-0.00006,-0.00007,34.7,37.0,12,0,0,.,7.13,0.00,0.00
15min,AgWx,beryljct,423,17FEB2021:23:15:00,21.4,12.76,21.8,21.3,20.7,21.3,20.3,86,87,85,0.336,17.2,17.7,16.6,2.477,2.5,337,14,3.0,-0.00008,-0.00010,34.6,37.0,12,0,0,.,7.13,0.00,0.00
15min,AgWx,beryljct,423,17FEB2021:23:30:00,21.1,12.75,18.7,18.5,20.5,21.7,18.4,84,86,83,0.299,16.5,17.9,14.6,3.244,3.3,347,13,4.7,-0.00006,-0.00007,34.6,37.0,12,0,0,.,7.13,0.00,0.00
15min,AgWx,bigpiney,439,17FEB2021:00:00:00,11.9,12.6,17.5,16.2,15.2,16.2,14.6,86,86,84,0.266,11.7,12.4,11.1,7.125,6.3,289,6.9,7.3,0.00001,0.00002,22.4,26.4,8,0,0,0.0,0.18,0.00,0.00
15min,AgWx,bigpiney,439,17FEB2021:00:15:00,13.0,12.61,18.6,17.9,17.0,17.9,16.2,81,84,78,0.264,12.3,12.6,12.1,7.475,8.1,284,8.6,9.9,0.00003,0.00004,22.3,26.3,8,0,0,0.0,0.18,0.00,0.00
15min,AgWx,bigpiney,439,17FEB2021:00:30:00,14.2,12.59,19.8,19.0,18.7,19.2,17.7,76,78,74,0.265,12.3,12.5,11.9,11.27,10.6,288,5.0,12.7,0.00007,0.00008,22.3,26.3,8,0,0,0.0,0.18,0.00,0.00
15min,AgWx,bigpiney,439,17FEB2021:00:45:00,15.3,12.6,19.6,19.1,19.1,19.3,18.9,73,74,71,0.255,11.8,12.4,11.4,9.36,10.3,286,5.1,12.1,0.00008,0.00009,22.2,26.3,8,0,0,0.0,0.18,0.00,0.00
15min,AgWx,bigpiney,439,17FEB2021:01:00:00,16.1,12.59,19.3,18.9,18.5,19.1,17.9,71,73,68,0.241,10.7,11.4,10.1,8.18,9.1,283,8.1,11.6,0.00008,0.00009,22.1,26.2,8,0,0,0.0,0.18,0.00,0.00
15min,AgWx,bigpiney,439,17FEB2021:01:15:00,16.6,12.58,18.4,17.8,18.5,19.1,17.8,67,68,66,0.223,9.2,10.0,8.3,10.22,10.8,295,5.6,13.8,0.00010,0.00012,22.1,26.2,8,0,0,0.0,0.18,0.00,0.00
15min,AgWx,bigpiney,439,17FEB2021:01:30:00,17.0,12.58,19.4,18.8,18.5,18.8,17.8,65,66,64,0.226,8.5,8.7,8.2,14.45,11.9,299,5.2,16.6,0.00011,0.00013,22.1,26.2,8,0,0,0.0,0.18,0.00,0.00
15min,AgWx,bigpiney,439,17FEB2021:01:45:00,17.4,12.56,19.2,18.9,18.9,19.0,18.7,64,65,64,0.229,8.7,9.0,8.5,15.74,14.8,302,6.3,19.4,0.00013,0.00014,22.1,26.1,8,0,0,0.0,0.18,0.00,0.00
15min,AgWx,bigpiney,439,17FEB2021:02:00:00,17.7,12.56,19.4,19.0,18.9,19.1,18.7,65,66,64,0.231,9.0,9.2,8.7,15.63,16.4,296,6.8,19.8,0.00013,0.00014,22.0,26.1,8,0,0,0.0,0.18,0.00,0.00
15min,AgWx,bigpiney,439,17FEB2021:02:15:00,18.1,12.55,19.6,19.1,19.2,19.4,19.0,63,65,62,0.221,8.8,9.3,8.2,12.93,15.3,289,5.5,21.0,0.00013,0.00015,22.0,26.1,8,0,0,0.0,0.18,0.00,0.00
15min,AgWx,bigpiney,439,17FEB2021:02:30:00,18.3,12.54,19.2,19.0,19.3,19.5,19.0,60,62,60,0.215,7.8,8.1,7.5,11.88,12.3,291,4.8,14.8,0.00013,0.00015,22.0,26.0,8,0,0,0.0,0.18,0.00,0.00
15min,AgWx,bigpiney,439,17FEB2021:02:45:00,18.4,12.53,18.3,17.9,18.5,19.0,17.9,62,63,60,0.212,7.5,7.7,7.3,9.38,10.4,289,4.2,12.6,0.00012,0.00013,22.0,26.1,8,0,0,0.0,0.18,0.00,0.00
15min,AgWx,bigpiney,439,17FEB2021:03:00:00,18.2,12.51,17.9,17.4,17.8,18.1,17.4,62,63,61,0.208,7.0,7.4,6.8,8.62,9.1,289,4.7,11.2,0.00010,0.00012,21.9,26.0,8,0,0,0.0,0.18,0.00,0.00
15min,AgWx,bigpiney,439,17FEB2021:03:15:00,17.9,12.51,17.1,16.9,17.4,17.7,16.9,63,63,62,0.204,6.8,7.0,6.5,6.577,7.5,290,4.2,9.2,0.00009,0.00011,21.9,25.9,8,0,0,0.0,0.18,0.00,0.00
15min,AgWx,bigpiney,439,17FEB2021:03:30:00,17.5,12.51,16.6,16.4,16.2,16.9,15.7,64,65,63,0.200,6.2,6.5,6.0,6.533,6.1,293,5.0,7.4,0.00007,0.00009,21.9,26.0,8,0,0,0.0,0.18,0.00,0.00
15min,AgWx,bigpiney,439,17FEB2021:03:45:00,16.8,12.48,13.3,13.6,14.5,16.4,13.2,67,70,63,0.190,5.4,6.0,4.8,3.442,3.1,286,26,6.5,0.00002,0.00004,21.8,26.0,8,0,0,0.0,0.18,0.00,0.00
15min,AgWx,bigpiney,439,17FEB2021:04:00:00,15.9,12.47,12.7,12.8,12.8,13.6,11.8,69,71,67,0.187,4.7,5.5,3.4,3.091,3.5,307,40,4.3,0.00002,0.00003,21.8,26.0,8,0,0,0.0,0.18,0.00,0.00
15min,AgWx,bigpiney,439,17FEB2021:04:15:00,14.9,12.47,11.9,11.4,11.4,12.7,10.6,72,74,69,0.186,4.1,4.6,3.5,5.02,3.4,307,16,5.1,0.00001,0.00002,21.7,25.9,8,0,0,0.0,0.18,0.00,0.00
15min,AgWx,bigpiney,439,17FEB2021:04:30:00,13.9,12.46,9.7,9.5,10.7,11.5,9.5,74,75,73,0.175,3.9,4.5,3.1,3.793,4.7,312,11,7.1,0.00003,0.00003,21.7,25.8,8,0,0,0.0,0.18,0.00,0.00
15min,AgWx,bigpiney,439,17FEB2021:04:45:00,13.0,12.45,9.6,8.8,9.2,9.6,8.8,76,76,75,0.174,3.1,3.6,2.5,1.82,2.6,297,21,4.0,-0.00000,0.00000,21.6,25.8,8,0,0,0.0,0.18,0.00,0.00
15min,AgWx,bigpiney,439,17FEB2021:05:00:00,12.2,12.44,10.1,9.5,9.4,10.0,8.9,75,77,74,0.177,3.2,3.8,2.6,3.529,1.6,247,31,4.2,-0.00002,-0.00002,21.5,25.8,8,0,0,0.0,0.18,0.00,0.00
15min,AgWx,bigpiney,439,17FEB2021:05:15:00,11.6,12.44,11.3,10.6,10.3,10.7,9.4,74,76,72,0.179,3.6,3.9,3.2,7.388,6.2,298,10,9.2,0.00003,0.00004,21.4,25.8,8,0,0,0.0,0.18,0.00,0.00
15min,AgWx,bigpiney,439,17FEB2021:05:30:00,11.3,12.43,9.6,8.7,9.7,10.8,8.7,73,74,73,0.168,2.9,3.7,2.1,8.24,7.3,306,7.8,8.5,0.00004,0.00005,21.4,25.8,8,0,0,0.0,0.18,0.00,0.00
15min,AgWx,bigpiney,439,17FEB2021:05:45:00,10.8,12.43,6.8,6.7,7.9,8.8,6.7,74,75,74,0.156,1.5,2.3,0.5,6.029,6.8,302,7.6,8.7,0.00003,0.00004,21.3,25.7,8,0,0,0.0,0.18,0.00,0.00
15min,AgWx,bigpiney,439,17FEB2021:06:00:00,10.1,12.42,8.5,7.5,6.6,7.5,5.8,76,77,74,0.160,0.5,1.3,-0.2,8.53,6.4,320,8.3,8.5,0.00003,0.00003,21.2,25.7,8,0,0,0.0,0.18,0.00,0.00
15min,AgWx,bigpiney,439,17FEB2021:06:15:00,9.5,12.41,8.8,8.2,8.5,9.2,7.5,73,75,71,0.159,1.5,2.2,0.7,6.84,7.7,325,6.8,9.7,0.00004,0.00005,21.1,25.7,8,0,0,0.0,0.18,0.00,0.00
15min,AgWx,bigpiney,439,17FEB2021:06:30:00,9.1,12.4,10.2,8.9,7.9,8.9,7.4,73,75,72,0.170,1.1,2.4,0.6,5.7,5.7,295,7.1,7.4,0.00003,0.00004,20.9,25.7,8,0,0,0.0,0.18,0.00,0.00
15min,AgWx,bigpiney,439,17FEB2021:06:45:00,8.9,12.4,7.0,6.6,10.5,12.2,6.6,72,74,67,0.145,3.2,4.8,-1.1,5.196,6.0,313,57,9.0,0.00004,0.00005,20.8,25.6,8,0,0,0.0,0.18,0.00,0.00
15min,AgWx,bigpiney,439,17FEB2021:07:00:00,8.8,12.4,5.4,5.3,6.7,8.5,5.3,76,80,71,0.148,0.7,3.4,-0.9,0.877,5.0,138,30,10.2,0.00002,0.00003,20.7,25.5,8,0,0,0.0,0.18,0.00,0.00
15min,AgWx,bigpiney,439,17FEB2021:07:15:00,8.3,12.43,3.6,3.3,4.9,6.0,3.3,79,81,77,0.143,-0.1,1.2,-1.3,4.319,7.4,120,16,11.4,0.00002,0.00003,20.6,25.6,8,2,0,0.0,0.18,0.00,0.00
15min,AgWx,bigpiney,439,17FEB2021:07:30:00,7.7,12.52,6.7,6.1,4.3,6.1,3.2,83,85,81,0.169,0.3,2.4,-1.3,5.524,4.8,144,9.9,7.8,-0.00002,0.00001,20.4,25.5,8,7,0,0.0,0.18,0.00,0.00
15min,AgWx,bigpiney,439,17FEB2021:07:45:00,7.2,15.04,5.4,2.8,4.0,6.1,2.6,82,84,81,0.143,-0.2,2.2,-2.0,4.801,5.5,139,13,8.8,-0.00002,0.00002,20.3,25.5,8,48,0,0.0,0.18,0.00,0.00
15min,AgWx,bigpiney,439,17FEB2021:08:00:00,7.1,15.08,5.2,5.0,4.6,5.2,3.1,84,86,83,0.159,0.8,1.5,-0.8,5.853,5.8,140,10,7.3,0.00005,0.00009,20.2,25.4,8,92,0,0.0,0.18,0.00,0.00
15min,AgWx,bigpiney,439,17FEB2021:08:15:00,7.5,15,6.2,5.6,5.1,5.6,4.4,83,84,82,0.163,1.1,1.7,0.1,4.187,4.2,140,4.7,5.9,0.00011,0.00014,20.0,25.4,8,127,0,0.0,0.18,0.00,0.00
15min,AgWx,bigpiney,439,17FEB2021:08:30:00,8.4,14.99,7.1,6.4,5.9,6.4,5.6,83,84,83,0.171,1.9,2.6,1.5,3.288,4.0,143,13,5.4,0.00017,0.00022,19.9,25.4,8,164,0,0.0,0.18,0.00,0.00
15min,AgWx,bigpiney,439,17FEB2021:08:45:00,9.6,15,8.3,7.5,6.9,7.5,6.3,83,84,82,0.176,2.8,3.2,2.2,3.529,3.4,163,11,4.6,0.00025,0.00030,19.8,25.3,8,202,0,0.0,0.18,0.00,0.00
15min,AgWx,bigpiney,439,17FEB2021:09:00:00,11.0,14.75,9.1,8.2,8.1,8.6,7.5,81,82,80,0.176,3.5,3.8,3.1,3.025,3.4,144,11,4.2,0.00035,0.00040,19.8,25.2,8,240,0,0.0,0.18,0.00,0.00